STARLINK-1112 (44925 NORAD) Tracking and Keplerian Element Data

This shows tracking and keplerian element data for the satellite.

Feedback or suggestion? Click here.




ElementValue
Catalog44925
NameSTARLINK-1112
Epoch Orbit1328
Epoch Day93.91667824
Epoch Year2020
RAAN353.6355
Inclination53.0002
Eccentricity0.0001648
Argument of Perigee77.7081
Mean Anonmoly328.2348
Mean Motion15.05580527
Decay Rate-0.00033484
L11 44925U 20001M 20093.91667824 -.00033484 00000-0 -22897-2 0 9998
L22 44925 53.0002 353.6355 0001648 77.7081 328.2348 15.05580527 13287

Live tracking and technical data element details for STARLINK-1112 (NORAD 44925). STARLINK-1112 can be tracked NOW for your location showing map with azimuth and elevation plus other details from your city location.

Track the satellite on the map from your city or location and see movement details for azimuth, elevation, latitude, longitude, range, height, and movement on the map or in text.







IsCatalogInMostPopularTable: catalog: 44925, numindb: 18
Update: records affected: 1



GetName: 44925 STARLINK-1112

Hit Count: updated at: Fri, 03 Apr 2020 23:41:23 GMT